Holdrege, NE

11:21 PM CDT on April 19, 2018 (GMT -0500)
Brewster

Weather History for KHDE - February, 2012

Change the Weather History Date:

Friday, February 24, 2012

  Actual Average Record
Temperature  
Mean Temperature 34 °F -  
Max Temperature 41 °F 44 °F 71 °F (1976)
Min Temperature 26 °F 21 °F -9 °F (1965)
Degree Days  
Heating Degree Days 32    
Moisture  
Dew Point 23 °F    
Average Humidity 74    
Maximum Humidity 88    
Minimum Humidity 43    
Precipitation  
Precipitation 0.00 in - - ()
Sea Level Pressure  
Sea Level Pressure 30.11 in    
Wind  
Wind Speed 11 mph (WNW)    
Max Wind Speed 21 mph    
Max Gust Speed 25 mph    
Visibility 10 miles    
Events      
Averages and records for this station are not official NWS values.
T = Trace of Precipitation, MM = Missing Value Source: NWS Daily Summary

Daily Weather History Graph

Daily Weather History Graph

Search for Another Location

Airport or City:

Astronomy

Feb. 24, 2012 Rise Set
Actual Time 7:19 AM CST 6:22 PM CST
Civil Twilight 6:51 AM CST 6:50 PM CST
Nautical Twilight 6:20 AM CST 7:21 PM CST
Astronomical Twilight 5:48 AM CST 7:53 PM CST
Moon 8:13 AM CST (2/24) 9:28 PM CST (2/24)
Length of Visible Light 11h 58m
Length of Day
11h 03m
Waxing Crescent, 8% of the Moon is Illuminated
Feb 24
Waxing Crescent
Feb 29
First Quarter
Mar 8
Full
Mar 14
Last Quarter
Mar 22
New

Hourly Weather History & Observations

Time (CST) Temp. Windchill Dew Point Humidity Pressure Visibility Wind Dir Wind Speed Gust Speed Precip Events Conditions
12:15 AM 30.2 °F 20.2 °F 23.9 °F 77% 29.94 in 10.0 mi NW 12.7 mph - N/A   Clear
12:35 AM 29.8 °F 19.3 °F 23.9 °F 79% 29.96 in 10.0 mi NW 13.8 mph - N/A   Clear
12:55 AM 29.3 °F 18.6 °F 23.9 °F 80% 29.96 in 10.0 mi NW 13.8 mph - N/A   Clear
1:15 AM 29.3 °F 19.1 °F 24.3 °F 81% 29.97 in 10.0 mi NW 12.7 mph - N/A   Clear
1:35 AM 29.7 °F 20.7 °F 23.9 °F 79% 29.97 in 10.0 mi WNW 10.4 mph - N/A   Clear
1:55 AM 30.0 °F 21.1 °F 23.5 °F 77% 29.98 in 10.0 mi WNW 10.4 mph - N/A   Clear
2:15 AM 29.7 °F 19.6 °F 23.0 °F 76% 29.99 in 10.0 mi WNW 12.7 mph - N/A   Clear
2:35 AM 28.6 °F 19.9 °F 22.5 °F 78% 30.00 in 10.0 mi West 9.2 mph - N/A   Clear
2:55 AM 28.4 °F 19.7 °F 22.6 °F 79% 30.00 in 10.0 mi WNW 9.2 mph - N/A   Clear
3:15 AM 29.3 °F 19.6 °F 22.8 °F 77% 29.99 in 10.0 mi WNW 11.5 mph - N/A   Clear
3:35 AM 29.3 °F 19.1 °F 23.0 °F 77% 29.99 in 10.0 mi NW 12.7 mph - N/A   Clear
3:55 AM 29.3 °F 19.1 °F 23.2 °F 78% 30.00 in 10.0 mi WNW 12.7 mph - N/A   Clear
4:15 AM 29.3 °F 18.2 °F 23.4 °F 78% 30.01 in 10.0 mi NW 15.0 mph - N/A   Clear
4:35 AM 29.7 °F 19.1 °F 23.0 °F 76% 30.01 in 10.0 mi WNW 13.8 mph - N/A   Clear
4:55 AM 29.8 °F 19.8 °F 22.6 °F 75% 30.02 in 10.0 mi NW 12.7 mph 19.6 mph N/A   Clear
5:15 AM 29.3 °F 18.2 °F 22.1 °F 75% 30.02 in 10.0 mi NW 15.0 mph - N/A   Clear
5:35 AM 29.1 °F 18.4 °F 21.9 °F 74% 30.04 in 10.0 mi NW 13.8 mph - N/A   Clear
6:15 AM 27.5 °F 18.6 °F 22.1 °F 80% 30.06 in 10.0 mi WNW 9.2 mph - N/A   Clear
6:35 AM 28.4 °F 18.5 °F 21.9 °F 77% 30.07 in 10.0 mi NW 11.5 mph 17.3 mph N/A   Clear
6:55 AM 27.9 °F 17.3 °F 21.7 °F 78% 30.08 in 10.0 mi NW 12.7 mph - N/A   Clear
7:15 AM 27.3 °F 18.4 °F 21.4 °F 78% 30.09 in 10.0 mi NW 9.2 mph - N/A   Clear
7:35 AM 27.3 °F 18.4 °F 21.2 °F 78% 30.09 in 10.0 mi WNW 9.2 mph - N/A   Clear
7:55 AM 27.0 °F 20.5 °F 21.7 °F 81% 30.10 in 10.0 mi WNW 5.8 mph - N/A   Clear
8:15 AM 28.4 °F 19.1 °F 22.5 °F 78% 30.11 in 10.0 mi WNW 10.4 mph - N/A   Clear
8:55 AM 31.8 °F 22.8 °F 22.8 °F 69% 30.13 in 10.0 mi NW 11.5 mph - N/A   Clear
9:15 AM 32.5 °F 23.7 °F 22.3 °F 66% 30.13 in 10.0 mi WNW 11.5 mph 17.3 mph N/A   Clear
9:35 AM 33.8 °F 25.3 °F 21.9 °F 62% 30.13 in 10.0 mi West 11.5 mph - N/A   Clear
9:55 AM 34.7 °F 25.9 °F 22.5 °F 61% 30.13 in 10.0 mi WNW 12.7 mph - N/A   Clear
10:15 AM 35.6 °F 28.0 °F 23.0 °F 60% 30.14 in 10.0 mi WNW 10.4 mph - N/A   Clear
10:35 AM 36.5 °F 27.8 °F 23.5 °F 59% 30.14 in 10.0 mi West 13.8 mph - N/A   Clear
10:55 AM 36.9 °F 28.7 °F 23.4 °F 58% 30.14 in 10.0 mi West 12.7 mph 18.4 mph N/A   Clear
11:15 AM 37.8 °F 28.6 °F 24.1 °F 58% 30.15 in 10.0 mi WNW 16.1 mph - N/A   Clear
11:35 AM 38.5 °F 31.1 °F 24.3 °F 57% 30.14 in 10.0 mi West 11.5 mph 19.6 mph N/A   Clear
12:15 PM 40.8 °F 34.1 °F 21.9 °F 47% 30.13 in 10.0 mi West 11.5 mph 19.6 mph N/A   Clear
5:15 PM 40.1 °F 33.2 °F 21.0 °F 47% 30.12 in 10.0 mi NW 11.5 mph 18.4 mph N/A   Scattered Clouds
5:35 PM 41.9 °F 32.8 °F 20.8 °F 43% 30.13 in 10.0 mi NW 20.7 mph 25.3 mph N/A   Scattered Clouds
5:55 PM 39.2 °F 29.8 °F 22.8 °F 52% 30.14 in 10.0 mi NNW 18.4 mph 25.3 mph N/A   Scattered Clouds
6:15 PM 37.0 °F 31.0 °F 23.9 °F 59% 30.15 in 10.0 mi NNW 8.1 mph 17.3 mph N/A   Scattered Clouds
6:35 PM 35.6 °F 28.6 °F 24.6 °F 64% 30.16 in 10.0 mi NW 9.2 mph - N/A   Scattered Clouds
6:55 PM 33.8 °F 26.4 °F 25.0 °F 70% 30.18 in 10.0 mi NNW 9.2 mph - N/A   Scattered Clouds
7:15 PM 33.8 °F 25.3 °F 26.4 °F 74% 30.19 in 10.0 mi North 11.5 mph 16.1 mph N/A   Clear
7:35 PM 32.4 °F 25.3 °F 26.6 °F 79% 30.20 in 10.0 mi North 8.1 mph - N/A   Clear
7:55 PM 31.5 °F 25.8 °F 26.1 °F 80% 30.20 in 10.0 mi NW 5.8 mph - N/A   Clear
8:15 PM 30.6 °F 24.7 °F 25.7 °F 82% 30.20 in 10.0 mi NW 5.8 mph - N/A   Clear
8:35 PM 29.3 °F 23.2 °F 25.2 °F 85% 30.21 in 10.0 mi West 5.8 mph - N/A   Clear
8:55 PM 29.3 °F 22.3 °F 25.0 °F 84% 30.21 in 10.0 mi WNW 6.9 mph - N/A   Clear
9:15 PM 29.7 °F 22.8 °F 25.0 °F 83% 30.21 in 10.0 mi NW 6.9 mph - N/A   Clear
9:35 PM 28.0 °F 19.3 °F 24.6 °F 87% 30.21 in 10.0 mi NW 9.2 mph - N/A   Clear
9:55 PM 28.8 °F 20.9 °F 24.8 °F 85% 30.21 in 10.0 mi NW 8.1 mph - N/A   Clear
10:15 PM 29.1 °F 21.3 °F 24.8 °F 84% 30.22 in 10.0 mi NNW 8.1 mph - N/A   Clear
10:35 PM 28.4 °F 22.2 °F 24.4 °F 85% 30.23 in 10.0 mi West 5.8 mph - N/A   Clear
10:55 PM 27.9 °F 20.6 °F 24.1 °F 86% 30.23 in 10.0 mi WNW 6.9 mph - N/A   Clear
11:15 PM 27.5 °F 21.1 °F 23.5 °F 85% 30.23 in 10.0 mi West 5.8 mph - N/A   Clear
11:35 PM 26.6 °F 21.2 °F 23.4 °F 88% 30.23 in 10.0 mi WNW 4.6 mph - N/A   Clear
11:55 PM 26.6 °F 21.2 °F 22.8 °F 86% 30.23 in 10.0 mi WSW 4.6 mph - N/A   Clear